Location: Unspecified
(0.0000°N, 0.0000°E)
Time: 17:55:51
(UTC+00:00)

STARLINK 1067 - Pass Details

Date: 17 January 2020
Orbit: 549 x 550 km, 53.0° (Epoch: 22 January)

Event Time Altitude Azimuth Distance (km) Brightness Sun altitude
Rises 19:18:55 0° 301° (WNW) 2,706 7.7 -16.1°
Reaches altitude 10° 19:21:36 10° 283° (WNW) 1,816 7.1 -16.7°
Maximum altitude 19:24:39 20° 235° (SW) 1,302 6.5 -17.4°
Drops below altitude 10° 19:27:44 10° 187° (S) 1,823 6.6 -18.1°
Sets 19:30:26 0° 170° (S) 2,720 7.3 -18.7°
